This demonstration page uses our WeatherBlox Daily Observations layout. Learn more.

Left ArrowRight Arrow

Hourly Observations for April 13, 2015

Temp ( °F °C ) Dew Point ( °F °C ) Humidity (%) Winds ( mph kmh ) Pressure ( in mb ) Visibility ( mi km ) Precip ( " mm )
12:53 am 00:53 Clear 55 12.8 40 4.4 57 57 E 5 7 30.07 1018 10 16.0934 0 0
1:53 am 01:53 Clear 54 12.2 40 4.4 59 59 ENE 3 6 30.07 1018 10 16.0934 0 0
2:53 am 02:53 Clear 55 12.8 39 3.9 55 55 ENE 5 7 30.06 1018 10 16.0934 0 0
3:53 am 03:53 Clear 56 13.3 40 4.4 55 55 E 5 7 30.06 1018 10 16.0934 0 0
4:53 am 04:53 Clear 55 12.8 40 4.4 57 57 E 5 7 30.06 1018 10 16.0934 0 0
5:53 am 05:53 Clear 52 11.1 44 6.7 75 75 E 5 7 30.07 1018 10 16.0934 0 0
6:53 am 06:53 Mostly Clear 54 12.2 47 8.3 77 77 ENE 6 9 30.1 1019 10 16.0934 0 0
7:53 am 07:53 Mostly Sunny 58 14.4 48 8.9 70 70 ESE 5 7 30.12 1020 10 16.0934 0 0
8:53 am 08:53 Mostly Cloudy 64 17.8 50 10 60 60 ESE 3 6 30.11 1020 10 16.0934 0 0
9:53 am 09:53 Mostly Sunny 71 21.7 53 11.7 53 53 SSW 14 22 30.1 1019 10 16.0934 0 0
10:53 am 10:53 Partly Cloudy 74 23.3 55 12.8 52 52 SW 14 22 30.1 1019 10 16.0934 0 0
11:53 am 11:53 Mostly Sunny 76 24.4 56 13.3 50 50 SSW 10 17 30.08 1019 10 16.0934 0 0
12:53 pm 12:53 Mostly Sunny 77 25 57 13.9 50 50 SW 14 22 30.06 1018 10 16.0934 0 0
1:53 pm 13:53 Partly Cloudy 79 26.1 58 14.4 49 49 SSW 12 19 30.04 1017 10 16.0934 0 0
2:53 pm 14:53 Mostly Cloudy 78 25.6 57 13.9 48 48 SW 13 20 30.03 1017 10 16.0934 0 0
3:53 pm 15:53 Partly Cloudy 80 26.7 58 14.4 47 47 WSW 13 20 30.01 1016 10 16.0934 0 0
4:53 pm 16:53 Mostly Cloudy 80 26.7 58 14.4 47 47 SW 9 15 29.99 1016 10 16.0934 0 0
5:50 pm 17:50 Mostly Cloudy with Nearby Thunderstorms 79 26 57 14 48 48 WSW 12 19 30 1016 10 16.0934 0 0
5:53 pm 17:53 Mostly Cloudy with Nearby Thunderstorms 76 24.4 58 14.4 54 54 WNW 26 43 30.01 1016 10 16.0934 0 0
6:04 pm 18:04 Cloudy with Nearby Thunderstorms 66 18.9 62 16.7 87 87 WNW 16 26 30.06 1018 2.5 4.02335 0.05 1.27
6:28 pm 18:28 Cloudy with Nearby Thunderstorms 66 18.9 64 17.8 93 93 NW 8 13 30.06 1018 6 9.65604 0.11 2.794
6:53 pm 18:53 Cloudy with Light Rain 66 18.9 64 17.8 93 93 NNW 8 13 30.04 1017 7 11.26538 0.12 3.048
7:53 pm 19:53 Cloudy with Heavy Rain 65 18.3 63 17.2 93 93 NNW 13 20 30.06 1018 1.75 2.816345 0.1 2.54
8:01 pm 20:01 Cloudy with Light Rain 65 18.3 62 16.7 90 90 NNW 13 20 30.06 1018 3 4.82802 0.01 0.254
8:53 pm 20:53 Cloudy 63 17.2 58 14.4 84 84 NNW 6 9 30.08 1019 10 16.0934 0.01 0.254
9:53 pm 21:53 Cloudy 63 17.2 58 14.4 84 84 VRB 3 6 30.1 1019 10 16.0934 0.01 0.254
10:53 pm 22:53 Cloudy 61 16.1 59 15 93 93 Calm 30.11 1020 10 16.0934 0 0
11:53 pm 23:53 Cloudy 63 17.2 57 13.9 81 81 NNE 5 7 30.13 1020 10 16.0934 0 0

Powered by AerisWeather